Powrót do katalogu

STARLINK-34439

AktywnyŁącznośćVLEO
NORAD 64458·PAYLOAD·🇺🇸 United States

Wystrzelony Jun 18, 2025 z Cape Canaveral Space Force Station

Loading…

Następne Przeloty (najbliższe 24 godziny)

TLE

ŚwieżeSource: CelesTrak SupGP

Epoka: Sep 14, 2026, 22:51 UTC

1 64458C 25130W   26257.95256944  .00050017  00000+0  14782-2 0  2577
2 64458  53.1558 287.3563 0001137  88.8748 114.5295 15.34357011    13

Śledź STARLINK-34439 w czasie rzeczywistym z AllMySat

Download on the App Store